Date,TemperatureHighF,TemperatureAvgF,TemperatureLowF,DewpointHighF,DewpointAvgF,DewpointLowF,HumidityHigh,HumidityAvg,HumidityLow,PressureMaxIn,PressureMinIn,WindSpeedMaxMPH,WindSpeedAvgMPH,GustSpeedMaxMPH,PrecipitationSumIn
2013-1-1,24.8,21.3,13.3,21.8,18.2,10.9,95,88,79,30.50,30.30,5,0,5,0.00
2013-1-2,28.2,22.0,14.5,21.5,16.5,10.9,89,80,59,30.44,30.36,4,0,4,0.00
2013-1-3,27.0,18.2,12.2,19.9,13.8,9.1,93,83,67,30.36,30.21,5,1,6,0.00
2013-1-4,29.5,25.6,19.0,24.7,21.5,16.1,94,84,70,30.33,30.24,4,1,4,0.00
2013-1-5,34.0,29.3,25.5,26.5,24.5,22.0,93,82,68,30.30,30.12,9,2,10,0.00
2013-1-6,32.5,29.9,28.0,29.9,27.4,25.5,98,91,80,30.15,30.03,5,0,6,0.00
2013-1-7,37.8,34.1,31.3,37.2,33.6,0.0,98,98,93,30.03,29.82,6,0,6,0.04
2013-1-8,42.8,34.7,29.5,40.5,33.6,28.2,98,96,77,30.09,29.82,9,1,10,0.24
2013-1-9,45.5,40.8,34.2,36.3,33.2,28.3,84,74,62,29.85,29.65,12,2,12,0.05
2013-1-10,34.2,29.9,27.5,28.5,25.2,21.8,98,83,69,29.85,29.74,7,1,7,0.00
2013-1-11,32.2,24.3,14.9,24.5,13.4,7.1,92,64,42,30.15,29.85,8,2,8,0.00
2013-1-12,24.4,18.6,11.7,17.6,12.9,6.4,89,79,61,30.24,30.12,5,1,6,0.00
2013-1-13,21.7,17.0,10.4,15.8,11.8,6.5,89,80,69,30.33,30.18,3,0,3,0.00
2013-1-14,24.4,21.3,17.1,20.7,17.0,11.1,89,83,76,30.33,30.21,5,1,6,0.00
2013-1-15,30.6,26.1,19.9,26.2,22.3,17.5,92,86,73,30.50,30.30,4,0,4,0.00
2013-1-16,29.5,21.3,14.7,26.6,18.7,12.1,98,89,79,30.50,30.41,4,0,4,0.00
2013-1-17,25.3,21.2,14.9,24.6,20.2,12.8,98,96,91,30.47,30.27,3,0,3,0.00
2013-1-18,25.3,17.7,13.1,24.6,15.9,11.0,97,92,90,30.27,30.15,2,0,2,0.00
2013-1-19,36.0,24.3,19.4,27.9,23.5,0.0,98,97,94,30.36,30.24,2,0,3,0.00
2013-1-20,28.0,22.0,14.5,27.5,21.1,12.6,98,96,92,30.41,30.30,0,0,0,0.00
2013-1-21,24.3,21.9,18.5,23.4,21.2,16.7,98,97,95,30.30,30.18,1,0,1,0.00
2013-1-22,27.9,23.4,19.6,26.9,22.5,18.4,98,96,95,30.24,30.06,2,0,2,0.00
2013-1-23,35.6,29.0,22.6,35.1,27.6,21.7,98,95,79,30.09,29.88,6,0,6,0.16
2013-1-24,36.3,30.0,26.2,32.0,27.3,23.6,98,90,76,30.24,30.00,5,1,5,0.05
2013-1-25,41.2,36.8,32.7,40.7,36.3,32.0,98,98,98,30.12,29.88,115,0,229,0.61
2013-1-26,37.2,34.8,32.2,36.7,33.9,31.5,98,96,86,29.91,29.82,7,0,7,0.00
2013-1-27,32.5,30.8,28.8,32.0,28.7,27.1,98,92,85,29.97,29.88,4,1,5,0.00
2013-1-28,33.4,30.7,27.9,32.9,29.4,25.1,98,95,86,29.91,29.82,6,1,6,0.00
2013-1-29,36.0,31.7,28.0,32.2,29.1,0.0,98,91,70,30.15,29.82,6,0,6,0.05
2013-1-30,38.8,34.2,32.7,37.6,33.5,32.2,98,97,89,30.18,30.06,5,0,5,0.16
2013-1-31,41.7,36.9,34.0,40.3,35.9,33.5,98,96,84,30.24,30.12,4,0,4,0.00
2013-2-1,40.1,35.0,28.8,37.4,32.7,0.0,98,92,74,30.39,30.12,5,0,6,0.00
2013-2-2,37.0,30.3,25.3,36.5,29.8,24.9,98,98,98,30.42,30.18,6,2,6,0.00
2013-2-3,38.8,31.7,27.0,38.3,31.0,26.5,98,97,88,30.21,30.06,5,0,5,0.00
2013-2-4,46.0,34.2,31.1,39.2,32.5,29.1,98,94,56,30.09,29.94,6,0,6,0.00
2013-2-5,43.2,36.7,30.0,35.9,33.4,29.5,98,88,66,29.94,29.82,6,1,6,0.00
2013-2-6,43.5,37.6,33.3,36.2,30.7,0.0,96,77,54,30.06,29.88,6,1,8,0.00
2013-2-7,38.8,35.0,30.9,36.0,32.8,28.2,98,92,78,30.00,29.88,7,1,7,0.05
2013-2-8,37.9,34.7,29.8,35.8,32.9,28.1,98,93,76,30.09,29.97,4,0,5,0.04
2013-2-9,35.2,31.2,26.6,31.0,29.2,23.5,98,93,72,30.15,30.00,5,0,6,0.00
2013-2-10,34.3,30.9,25.7,30.5,26.7,22.9,98,85,68,30.24,30.12,5,0,6,0.00
2013-2-11,38.5,33.6,24.8,31.3,27.1,22.7,98,78,56,30.18,30.12,7,1,7,0.00
2013-2-12,41.7,37.4,32.7,34.8,31.1,28.2,88,78,60,30.24,30.12,9,1,12,0.00
2013-2-13,48.7,39.0,27.9,36.7,31.1,20.9,90,74,41,30.27,30.09,7,1,7,0.00
2013-2-14,43.0,31.8,27.0,31.3,26.7,23.9,95,82,52,30.44,30.27,6,1,7,0.00
2013-2-15,48.7,36.0,28.4,33.1,28.9,0.0,98,78,45,30.44,30.18,8,2,9,0.00
2013-2-16,46.6,36.6,29.5,39.5,32.9,28.1,98,87,58,30.21,29.88,6,1,7,0.00
2013-2-17,42.3,34.1,28.4,31.7,28.3,22.3,98,80,52,30.06,29.91,15,1,15,0.00
2013-2-18,43.0,35.1,27.7,30.2,25.3,21.0,96,69,42,30.06,29.76,8,1,8,0.00
2013-2-19,39.0,32.8,29.5,32.8,28.3,23.5,92,83,62,29.85,29.71,7,1,7,0.00
2013-2-20,38.7,33.0,28.2,32.2,29.0,20.2,92,86,52,30.09,29.82,7,1,7,9.87
2013-2-21,35.1,30.2,27.0,33.6,26.1,22.0,95,85,70,29.97,29.91,10,2,10,0.00
2013-2-22,37.9,36.2,33.1,36.7,33.1,22.5,98,89,59,29.94,29.59,12,3,12,0.16
2013-2-23,41.4,34.3,28.8,26.9,23.5,20.5,77,65,47,30.09,29.68,8,2,8,10.20
2013-2-24,38.5,35.8,28.2,28.9,24.8,22.7,94,64,53,30.27,30.03,10,2,10,0.04
2013-2-25,43.5,36.2,32.5,38.9,27.7,21.8,98,72,52,30.06,29.88,8,2,10,0.13
2013-2-26,38.8,33.4,25.9,26.7,23.4,21.1,88,67,51,30.27,30.06,10,1,10,0.00
2013-2-27,43.9,36.4,31.1,31.0,26.3,21.6,86,68,49,30.21,30.15,7,2,8,0.00
2013-2-28,44.6,37.9,34.5,37.8,34.2,0.0,98,87,59,30.30,30.18,8,2,8,0.04
2013-3-1,53.2,44.1,38.1,44.8,40.0,37.6,98,86,64,30.33,30.27,9,2,9,0.04
2013-3-2,53.2,42.9,34.2,39.4,37.3,0.0,95,82,50,30.27,29.88,17,2,17,0.00
2013-3-3,46.9,39.0,32.5,34.6,20.1,15.4,70,47,37,30.15,29.85,12,2,16,0.00
2013-3-4,47.1,34.5,25.5,25.7,18.3,0.0,100,54,31,30.24,30.06,7,1,8,0.00
2013-3-5,40.1,33.4,26.6,26.9,17.2,13.5,75,52,40,30.06,29.82,12,3,12,0.00
2013-3-6,41.2,35.1,33.6,36.7,27.9,24.1,98,75,63,29.85,29.62,12,3,12,0.12
2013-3-7,43.0,36.1,29.3,36.9,32.9,27.0,98,89,64,30.06,29.85,8,2,8,0.17
2013-3-8,38.8,32.3,29.1,36.5,31.3,27.6,98,96,80,30.09,27.79,6,1,6,0.00
2013-3-9,48.7,34.2,28.2,37.2,30.4,22.6,98,89,38,30.33,28.02,9,1,9,0.00
2013-3-10,46.6,37.0,31.5,35.6,31.6,26.3,98,83,46,30.36,30.18,9,2,9,0.00
2013-3-11,50.2,38.6,30.0,38.9,26.8,19.9,98,67,36,30.27,30.18,6,1,8,0.00
2013-3-12,51.4,42.8,34.3,45.4,37.5,22.6,98,82,56,30.18,30.03,8,2,9,0.13
2013-3-13,56.8,51.2,45.7,45.3,40.7,36.7,98,70,48,30.18,30.06,9,2,9,0.05
2013-3-14,62.4,48.1,43.5,40.7,38.5,31.1,83,70,41,30.12,29.94,11,3,11,0.00
2013-3-15,56.1,48.5,42.3,40.7,36.0,30.6,82,63,43,30.15,29.97,7,2,8,0.00
2013-3-16,54.5,42.9,36.7,40.7,37.1,27.0,95,81,43,30.06,29.68,12,2,12,0.08
2013-3-17,48.2,37.2,32.5,32.2,22.8,15.4,89,57,37,29.97,29.71,10,2,14,0.04
2013-3-18,41.0,33.8,28.6,32.2,23.9,15.2,89,67,43,30.09,29.94,9,2,9,0.00
2013-3-19,48.9,32.0,26.1,29.6,25.6,18.4,98,81,31,30.24,29.85,11,2,11,0.00
2013-3-20,50.4,41.3,36.7,47.4,38.0,22.5,98,89,48,29.85,29.53,10,2,12,0.66
2013-3-21,42.1,34.9,30.7,28.4,22.9,16.2,79,62,41,29.97,29.76,17,2,22,0.00
2013-3-22,39.9,30.8,27.1,27.5,24.5,19.7,90,78,49,30.18,29.94,10,2,10,0.00
2013-3-23,42.1,31.4,24.3,26.5,22.2,17.2,96,71,42,30.27,30.18,11,2,11,0.00
2013-3-24,46.0,32.6,20.8,25.5,18.3,12.1,92,60,29,30.30,30.12,9,1,9,0.00
2013-3-25,51.1,35.7,21.9,25.4,20.4,15.2,84,56,34,30.15,29.94,19,1,19,0.00
2013-3-26,56.1,40.2,25.3,30.4,25.4,0.0,90,60,36,30.00,29.91,9,1,229,0.00
2013-3-27,52.7,43.6,34.9,39.0,33.8,26.5,93,69,51,30.00,29.94,10,2,10,0.00
2013-3-28,53.4,40.1,34.3,40.8,37.3,33.1,98,90,57,30.06,29.97,8,2,8,0.00
2013-4-9,56.3,49.8,42.4,38.9,27.3,25.6,68,42,37,30.27,30.03,8,2,8,0.46
2013-4-10,56.1,45.7,42.3,52.3,35.3,30.5,98,68,44,30.18,29.79,12,2,13,0.08
2013-4-11,55.6,42.5,36.9,37.6,31.6,25.2,85,67,37,30.09,29.97,9,2,11,0.00
2013-4-12,55.8,43.2,33.6,35.8,31.1,25.5,98,66,36,30.06,29.59,10,2,10,0.13
2013-4-13,46.8,39.9,34.2,38.1,26.1,19.7,98,60,39,29.79,29.56,12,2,12,0.00
2013-4-14,46.6,38.3,31.3,29.5,25.8,21.6,85,62,39,29.91,29.79,9,2,9,0.00
2013-4-15,47.3,38.2,27.9,28.5,17.5,12.8,79,44,33,30.09,29.85,11,4,13,0.00
2013-4-16,46.2,36.5,26.6,18.7,13.9,9.1,60,40,30,30.27,30.06,13,3,13,0.00
2013-4-17,53.6,38.4,21.4,23.9,17.5,13.2,83,46,27,30.36,30.24,8,1,10,0.00
2013-4-18,54.3,44.4,31.3,36.0,26.3,16.7,72,50,38,30.30,30.12,10,2,11,0.00
2013-4-19,51.6,46.4,41.4,49.8,44.0,35.1,98,91,70,30.15,29.88,7,1,7,0.41
2013-4-20,54.9,43.2,38.7,41.3,38.2,27.5,98,84,39,30.06,29.94,9,1,10,0.00
2013-4-21,47.8,40.9,32.9,39.5,34.1,29.9,98,77,56,30.21,30.00,9,2,10,2.08
2013-4-22,52.2,39.8,27.9,32.2,23.3,17.1,92,56,28,30.41,30.21,11,2,11,0.00
2013-4-23,56.3,43.0,32.9,30.8,26.7,20.5,87,56,30,30.30,30.18,8,2,8,0.00
2013-4-24,63.5,48.3,32.9,33.9,29.9,24.1,88,53,30,30.27,29.94,13,2,13,0.00
2013-4-25,68.2,47.9,38.1,38.0,32.6,28.7,78,58,28,30.03,29.91,10,3,10,0.00
2013-4-26,73.4,58.5,43.7,41.8,36.7,32.6,74,46,28,30.18,30.03,11,2,11,0.00
2013-4-27,62.1,56.5,51.1,37.4,33.3,0.0,54,42,34,30.12,29.94,12,2,12,2.08
2013-4-28,61.5,53.8,45.9,38.6,33.7,26.2,70,48,35,30.06,29.85,10,2,10,2.08
2013-4-29,58.8,48.5,40.3,37.7,26.7,17.4,83,44,26,29.94,29.71,15,3,20,2.08
2013-4-30,48.9,40.9,36.3,30.5,24.3,17.0,78,53,37,30.27,29.88,8,2,8,0.38
2013-5-1,58.3,44.8,33.1,31.9,27.3,20.4,94,55,28,30.53,30.27,9,3,9,2.08
2013-5-2,65.7,51.6,35.2,33.5,29.8,24.3,88,47,26,30.53,30.21,10,2,10,0.00
2013-5-3,67.8,58.2,46.8,39.2,34.3,29.3,66,42,28,30.24,30.18,11,2,13,0.00
2013-5-4,70.5,58.3,41.0,40.8,32.8,24.9,80,42,24,30.30,30.06,13,3,14,0.00
2013-5-5,75.4,60.2,41.2,38.4,32.8,28.5,69,38,22,30.09,29.88,13,3,13,0.00
2013-5-6,79.9,62.4,40.1,40.7,36.4,32.4,84,43,21,29.94,29.76,8,1,9,2.46
2013-5-7,82.4,65.3,46.9,44.8,39.5,33.9,85,44,21,29.94,29.82,10,2,10,0.00
2013-5-8,83.5,66.2,46.6,47.8,42.5,39.3,84,47,24,30.03,29.94,7,1,8,0.00
2013-5-9,82.6,68.0,52.9,51.6,44.8,36.5,84,48,22,30.09,30.00,6,2,7,2.46
2013-5-10,83.8,68.8,51.6,48.7,45.2,41.1,77,46,24,30.18,30.09,7,2,7,0.00
2013-5-11,85.3,69.9,57.9,49.5,46.0,41.2,69,45,25,30.15,30.00,10,2,10,2.42
2013-5-12,80.2,68.2,58.8,52.2,48.7,45.8,74,52,31,30.06,29.94,7,2,8,0.00
2013-5-13,63.9,56.9,50.2,52.8,48.1,33.9,98,73,53,30.03,29.94,12,1,12,0.37
2013-5-14,59.2,51.0,41.4,37.9,32.3,30.1,73,50,36,30.15,30.03,10,2,10,0.04
2013-5-15,65.1,55.9,39.9,39.3,34.5,28.0,90,50,26,30.09,29.91,7,1,7,0.00
2013-5-16,59.9,53.4,44.6,48.5,44.1,36.2,93,72,48,29.97,29.88,10,1,10,0.00
2013-5-17,70.9,56.2,41.4,48.1,41.9,37.8,98,64,33,29.94,29.82,7,1,8,0.00
2013-5-18,57.6,53.2,48.4,45.5,42.6,39.5,85,68,53,30.12,29.94,8,1,8,0.00
2013-5-19,63.5,54.6,48.6,47.7,43.4,40.1,87,67,45,30.24,30.12,6,2,7,0.00
2013-5-20,73.0,59.4,44.4,49.2,43.3,38.8,98,61,32,30.27,29.91,10,2,10,0.05
2013-5-21,80.4,56.8,45.0,51.5,43.5,37.5,96,67,23,29.91,29.59,11,2,12,0.29
2013-5-22,47.5,43.2,38.8,44.5,38.7,33.9,96,85,60,30.00,29.76,6,1,6,0.41
2013-5-23,59.0,47.1,36.9,39.3,34.9,29.6,98,67,36,30.03,29.94,6,2,7,0.05
2013-5-24,54.7,45.5,34.0,44.1,38.6,32.3,97,78,49,30.03,29.94,6,1,8,0.08
2013-5-25,59.9,50.3,40.5,45.0,39.3,34.6,98,69,39,30.03,29.94,6,1,8,0.00
2013-5-26,70.7,55.6,37.2,45.4,39.5,35.6,98,60,32,30.00,29.88,6,1,9,0.00
2013-5-27,67.1,57.7,51.4,49.1,43.3,0.0,91,61,35,29.97,29.79,10,2,10,0.04
2013-5-28,59.5,54.4,49.8,52.0,49.1,46.1,96,83,61,29.88,29.79,6,1,6,0.08
2013-5-29,67.1,57.2,49.1,50.0,44.4,36.5,93,66,35,29.88,29.71,6,2,6,0.05
2013-5-30,59.7,52.1,46.0,47.2,42.3,37.8,92,70,48,30.12,29.88,8,1,8,0.04
2013-5-31,66.9,55.1,44.6,44.0,39.4,33.7,94,59,33,30.24,30.09,8,2,8,0.00
2013-6-1,70.5,57.4,41.5,44.6,38.8,33.4,91,54,32,30.24,29.97,8,1,8,0.00
2013-6-2,59.4,52.8,46.9,50.7,44.8,38.3,92,75,52,29.97,29.88,6,1,6,0.16
2013-6-3,70.3,58.2,47.1,52.2,45.4,38.4,98,67,34,30.06,29.94,10,2,18,0.00
2013-6-4,73.8,61.0,45.1,51.0,43.9,0.0,96,58,32,30.15,30.06,6,1,6,0.00
2013-6-5,79.9,66.4,49.6,49.6,45.9,41.5,90,52,30,30.09,29.94,8,2,8,0.00
2013-6-6,86.2,70.6,58.8,52.6,49.1,45.8,74,49,28,30.03,29.91,10,2,10,0.00
2013-6-7,82.4,69.2,60.1,54.8,46.7,35.7,81,48,27,29.94,29.82,10,2,11,0.00
2013-6-8,77.7,65.2,50.7,43.8,38.5,33.7,59,39,24,30.06,29.91,9,2,10,0.00
2013-6-9,76.1,64.7,53.2,44.8,38.4,29.7,65,40,23,29.94,29.85,9,2,9,0.00
2013-6-10,76.5,62.9,48.9,43.1,39.4,34.6,73,44,26,29.91,29.79,10,2,10,0.00
2013-6-11,71.8,60.8,49.5,47.1,39.3,29.5,85,47,31,30.03,29.79,8,2,10,0.04
2013-6-12,60.8,52.8,50.5,40.2,34.3,32.9,62,49,44,30.06,30.00,6,1,6,0.00
2013-6-19,60.4,51.9,49.6,54.1,50.5,38.4,96,95,93,30.03,24.57,8,1,8,0.59
2013-6-20,49.8,48.9,48.0,49.3,48.3,47.2,98,97,95,30.06,29.79,5,0,5,1.15
2013-6-21,63.0,54.7,47.5,53.1,46.7,41.9,98,77,49,30.12,30.03,8,1,10,0.05
2013-6-22,66.2,57.0,48.9,52.3,47.5,43.3,98,73,47,30.09,29.94,6,1,8,0.00
2013-6-23,76.6,62.6,46.8,56.0,46.8,41.4,98,62,31,30.00,29.68,6,1,8,0.00
2013-6-24,66.6,60.2,56.3,58.0,54.4,51.0,94,81,63,29.79,29.65,6,1,7,0.04
2013-6-25,67.3,59.5,50.2,58.7,52.3,45.7,98,78,47,29.91,29.76,7,1,10,0.33
2013-6-26,72.0,60.9,56.7,58.0,53.8,48.5,94,79,44,30.12,29.88,6,2,8,0.00
2013-6-27,76.8,67.6,56.3,57.6,54.3,50.3,96,65,44,30.24,30.12,9,2,9,0.00
2013-6-28,86.7,71.5,55.9,58.9,54.9,50.1,93,60,30,30.27,30.09,6,1,8,0.00
2013-6-29,75.4,67.1,58.8,63.5,59.3,54.9,97,77,53,30.15,30.00,10,2,12,0.00
2013-6-30,90.0,73.1,59.0,62.3,55.6,46.1,98,60,25,30.09,27.85,6,1,6,0.00
2013-7-1,94.6,76.1,59.2,63.0,57.9,54.3,95,59,27,30.09,29.94,11,2,11,0.00
2013-7-2,95.7,80.0,65.1,66.5,61.9,56.4,87,57,31,30.06,29.94,8,2,8,0.00
2013-7-3,88.3,76.8,65.7,65.4,54.7,43.0,85,50,29,30.03,29.91,10,2,10,0.04
2013-7-4,84.0,72.1,61.2,55.2,47.8,41.1,74,45,26,29.97,29.82,8,2,9,0.00
2013-7-5,78.8,68.1,59.0,52.2,45.9,40.9,73,47,31,29.94,29.82,8,2,10,0.08
2013-7-6,82.0,69.0,57.4,53.5,48.7,44.7,82,52,30,29.94,29.82,7,2,8,0.00
2013-7-7,84.9,69.4,51.3,53.9,45.7,38.3,94,49,21,29.94,29.82,8,2,8,0.00
2013-7-8,81.7,65.2,53.6,61.1,52.7,44.8,92,68,30,30.09,29.82,8,1,8,0.21
2013-7-9,86.2,69.8,54.3,56.2,48.6,38.0,96,54,20,30.15,30.00,6,1,6,0.04
2013-7-10,90.7,73.6,57.6,55.0,49.9,43.8,82,47,24,30.03,29.82,8,2,10,0.00
2013-7-11,81.3,67.4,57.2,54.5,44.8,28.5,72,47,22,29.91,29.82,10,1,10,0.00
2013-7-12,77.2,65.1,56.7,42.9,38.3,34.1,58,38,23,29.97,29.88,7,2,8,0.00
2013-7-13,75.6,64.6,52.3,47.2,41.5,37.0,71,45,27,30.18,29.94,9,2,10,0.00
2013-7-14,81.9,67.3,49.1,51.2,43.1,36.5,87,46,22,30.15,29.94,8,1,9,0.00
2013-7-15,83.1,68.5,56.5,50.5,42.2,34.5,74,42,22,30.00,29.94,6,2,9,0.00
2013-7-16,85.5,70.9,51.1,51.3,46.5,40.3,80,45,29,30.03,29.88,13,3,14,0.00
2013-7-17,89.1,75.0,62.2,65.0,54.4,48.2,92,53,28,30.09,29.88,9,1,11,0.04
2013-7-18,89.1,73.6,58.8,57.8,48.3,37.5,90,47,20,30.15,30.06,10,2,10,0.37
2013-7-19,91.4,75.2,58.5,53.5,47.0,39.9,73,42,19,30.12,29.94,7,2,7,0.37
2013-7-20,92.5,76.0,62.4,55.9,46.9,31.1,77,41,18,30.00,29.82,8,2,9,0.00
2013-7-21,91.9,75.3,60.8,49.4,43.9,37.5,58,35,18,29.91,29.82,10,2,10,0.37
2013-7-22,91.0,73.1,63.3,51.5,47.8,39.7,63,44,21,29.97,29.85,8,2,8,0.29
2013-7-23,93.4,77.4,63.9,52.6,46.7,39.9,62,37,19,30.06,29.94,9,2,9,0.00
2013-7-24,93.4,77.0,61.0,54.8,48.2,40.6,75,41,18,30.03,29.94,6,2,7,0.00
2013-7-25,93.9,77.2,62.1,55.0,48.3,0.0,74,40,18,30.06,29.97,7,2,7,0.00
2013-7-26,95.0,76.9,60.3,52.5,44.6,32.3,64,35,17,30.09,29.97,9,2,10,0.00
2013-7-27,86.7,72.9,60.4,48.9,41.0,32.7,55,33,19,30.03,29.88,57,2,57,0.00
2013-7-28,83.8,70.1,54.1,48.8,44.4,39.3,72,42,25,29.94,29.82,8,2,8,0.00
2013-7-29,83.3,72.8,63.3,49.2,45.0,39.8,60,38,24,30.00,29.85,6,2,6,0.00
2013-7-30,86.9,72.1,55.8,52.0,46.5,38.6,80,45,21,30.09,29.97,6,1,6,0.00
2013-7-31,85.3,78.3,65.1,49.5,45.7,39.9,46,32,24,30.15,29.97,9,2,9,0.00
2013-8-1,72.3,63.8,56.8,58.6,51.8,43.5,90,66,46,30.00,29.91,7,1,9,0.08
2013-8-2,60.1,58.3,56.1,58.2,56.5,55.0,98,94,89,30.09,29.94,5,1,5,0.92
2013-8-3,72.3,63.1,55.6,60.6,55.1,49.6,98,78,46,30.15,30.06,6,1,6,1.29
2013-8-4,82.6,68.6,56.1,58.4,52.3,45.2,98,62,30,30.12,29.97,10,2,11,0.00
2013-8-5,86.7,70.4,55.0,56.5,51.6,45.8,93,56,28,30.03,29.91,8,1,8,0.00
2013-8-6,88.0,71.9,55.4,57.7,52.5,46.0,97,56,28,30.03,29.91,6,1,6,0.00
2013-8-7,89.4,72.6,56.7,58.4,50.0,40.4,92,51,21,30.00,29.88,7,1,8,1.41
2013-8-8,88.3,72.5,58.5,55.2,49.8,43.2,80,49,23,30.03,29.88,6,1,6,0.00
2013-8-9,90.5,75.8,60.3,59.1,53.9,49.6,82,50,29,29.97,29.82,9,2,9,0.08
2013-8-10,89.2,77.8,61.9,59.8,54.5,46.8,86,47,28,30.03,29.88,8,2,8,0.05
2013-8-11,87.8,74.9,61.3,59.2,53.5,50.1,79,50,30,30.06,29.91,8,1,8,0.05
2013-8-12,88.2,73.5,59.5,62.4,53.4,46.3,92,54,26,30.06,29.94,6,1,227,1.54
2013-8-13,86.5,72.3,51.1,59.8,52.5,26.4,82,54,22,30.24,30.00,6,1,7,0.17
2013-8-14,90.1,68.6,57.0,58.4,52.9,46.0,91,62,25,30.06,29.88,6,1,6,0.00
2013-8-15,89.6,67.9,60.6,57.9,54.5,44.8,83,66,23,30.00,29.88,5,1,6,0.00
2013-8-16,87.4,73.7,62.6,58.3,52.1,45.8,79,51,28,30.03,29.94,6,1,7,0.00
2013-8-17,88.3,73.5,59.5,59.3,51.5,43.7,85,50,25,30.06,29.94,11,1,11,0.03
2013-8-18,85.3,71.3,57.6,55.1,48.1,40.2,76,47,27,30.12,30.00,8,1,8,0.00
2013-8-19,86.4,72.8,59.2,53.0,47.3,42.0,76,43,25,30.06,29.94,8,2,8,0.00
2013-8-20,82.9,68.3,54.3,52.2,42.4,32.8,84,43,22,30.09,29.94,8,1,8,0.00
2013-8-21,84.9,60.7,48.7,49.9,43.2,34.1,87,57,20,30.12,30.00,8,1,8,0.00
2013-8-22,88.5,66.2,50.5,50.8,46.1,41.7,85,54,21,30.03,29.82,9,1,10,0.05
2013-8-23,84.9,72.2,64.6,56.6,49.8,41.8,71,47,29,29.94,29.82,9,1,12,0.05
2013-8-24,85.5,70.8,60.1,56.4,51.2,45.2,82,54,26,29.94,29.76,6,1,7,0.00
2013-8-25,84.0,68.4,59.4,62.1,51.9,45.5,93,59,29,29.97,29.82,8,1,8,0.16
2013-8-26,77.9,66.3,55.8,60.1,51.7,44.9,98,64,33,30.06,29.91,8,1,8,0.00
2013-8-27,82.9,68.1,54.0,56.1,50.0,43.6,94,59,28,30.03,29.85,6,1,6,0.00
2013-8-28,84.6,67.3,0.0,57.7,49.1,0.0,89,54,27,29.94,29.82,7,1,7,0.00
2013-8-29,77.5,69.5,62.4,63.6,54.6,48.6,88,61,39,30.06,29.94,6,1,6,0.04
2013-8-30,80.4,67.7,59.5,60.5,54.2,40.2,96,66,30,30.15,30.03,11,2,11,0.21
2013-8-31,83.1,66.8,50.2,53.7,46.5,38.4,93,54,23,30.15,29.94,6,1,6,2.03
2013-9-1,88.0,70.0,52.0,52.7,48.2,42.4,91,52,24,29.97,29.82,11,1,11,0.04
2013-9-2,70.0,64.6,60.1,63.5,55.3,48.1,97,73,48,29.97,29.82,5,1,5,0.04
2013-9-3,79.7,67.2,59.4,62.9,59.7,55.7,98,79,46,30.06,29.94,6,0,6,0.00
2013-9-4,89.8,70.5,58.5,64.3,59.1,51.0,98,72,29,30.06,27.79,7,1,7,0.00
2013-9-5,75.0,68.4,60.8,66.3,63.0,57.9,97,83,63,30.09,29.88,9,1,9,0.58
2013-9-6,66.2,60.5,57.2,61.1,58.0,49.4,98,92,57,30.15,29.94,6,0,6,0.09
2013-9-7,71.8,62.1,54.1,57.5,53.2,47.7,98,75,44,30.15,30.06,6,0,6,0.26
2013-9-8,57.7,55.3,54.1,56.3,54.3,53.1,98,97,92,30.09,30.03,4,0,5,0.00
2013-9-14,87.6,72.2,57.0,56.5,45.1,40.2,98,41,22,30.09,29.88,7,1,7,0.93
2013-9-15,90.3,69.0,55.4,57.7,48.4,45.0,85,51,22,29.94,29.71,10,1,10,0.03
2013-9-16,68.5,62.3,57.2,60.4,54.7,46.1,94,77,50,29.94,29.79,6,1,6,0.05
2013-9-17,70.7,60.7,52.2,54.1,49.3,43.1,95,69,38,29.88,29.71,8,1,8,0.12
2013-9-18,63.9,55.3,49.3,52.0,45.9,40.2,96,72,44,30.09,29.76,8,1,10,0.04
2013-9-19,69.8,57.3,48.4,48.7,43.1,36.9,95,63,33,30.18,29.97,6,2,8,0.09
2013-9-20,74.8,58.6,43.7,47.8,43.1,39.7,95,60,32,30.00,29.59,8,1,8,0.00
2013-9-21,65.3,57.8,49.5,49.5,44.0,38.1,90,61,45,29.76,29.59,6,1,7,0.04
2013-9-22,62.1,54.2,46.8,50.2,44.9,38.1,97,73,45,29.79,29.71,8,1,9,0.04
2013-9-23,60.6,54.6,48.4,48.7,42.1,38.5,96,64,47,29.94,29.76,8,1,8,6.93
2013-9-24,58.3,53.2,49.1,52.7,44.3,38.2,95,73,48,29.94,29.76,6,1,6,0.08
2013-9-25,54.9,49.3,44.8,48.2,42.8,38.5,95,79,57,29.91,29.79,11,2,11,0.12
2013-9-26,62.2,49.8,40.5,47.7,36.9,28.3,97,66,31,30.06,29.88,9,1,9,0.00
2013-9-27,57.4,47.3,43.7,44.8,39.3,33.6,93,75,46,30.03,29.94,9,2,9,0.08
2013-9-28,55.2,51.2,46.6,53.5,49.9,45.0,98,95,84,29.94,29.53,9,2,10,0.42
2013-9-29,54.1,49.7,46.2,51.6,44.2,41.0,96,82,63,29.74,29.50,13,2,13,0.37
2013-9-30,59.4,50.6,44.1,49.3,38.7,34.9,98,65,43,29.94,29.47,10,2,12,0.25
2013-10-1,52.3,46.0,39.0,43.6,37.7,33.6,90,73,62,30.12,29.88,7,1,7,0.00
2013-10-2,52.9,45.8,39.4,39.7,35.8,32.4,92,69,47,30.18,30.00,7,1,8,0.00
2013-10-3,58.1,45.0,35.6,38.0,32.1,27.5,94,64,34,30.39,30.03,11,2,12,0.04
2013-10-4,58.1,42.8,30.0,38.9,30.8,26.8,96,67,32,30.44,30.36,8,1,8,0.29
2013-10-5,62.1,45.9,37.2,39.8,34.6,26.5,86,68,34,30.42,30.24,7,2,8,0.00
2013-10-6,66.2,49.1,34.5,43.2,38.0,32.3,98,70,34,30.27,29.94,6,1,6,0.00
2013-10-7,66.0,51.1,41.5,45.0,40.3,34.0,97,69,36,29.97,29.82,15,2,15,0.00
2013-10-8,48.7,42.9,35.8,43.2,38.6,33.8,98,85,65,30.03,29.88,7,1,9,0.13
2013-10-9,55.8,43.5,36.5,43.3,38.8,36.0,98,85,52,30.06,29.88,7,1,7,0.00
2013-10-10,52.5,43.0,34.7,41.6,40.0,33.9,98,90,61,29.97,29.82,6,0,8,0.00
2013-10-11,52.7,42.5,34.3,42.3,37.4,32.9,98,84,49,30.09,29.94,5,0,5,0.04
2013-10-12,55.9,44.9,34.7,37.2,32.9,29.1,90,65,39,30.12,30.00,8,1,9,0.00
2013-10-13,55.9,40.3,30.2,39.3,30.8,27.0,97,72,39,30.24,30.09,8,1,8,0.00
2013-10-14,57.2,40.7,30.0,38.2,29.6,25.1,98,69,33,30.39,30.24,8,1,8,0.00
2013-10-15,56.5,40.8,28.4,39.2,31.9,25.7,98,74,38,30.39,30.15,6,1,6,0.00
2013-10-16,57.6,45.4,35.1,40.0,35.1,32.0,93,69,40,30.18,30.09,6,1,6,0.00
2013-10-17,56.5,42.0,32.0,42.1,35.4,29.9,98,80,45,30.24,30.12,6,0,6,0.00
2013-10-18,56.8,43.9,32.2,41.0,37.1,30.9,98,79,46,30.30,30.15,7,1,7,0.00
2013-10-19,57.7,46.5,38.1,41.7,38.1,34.7,97,75,43,30.18,30.06,6,1,7,0.00
2013-10-20,59.0,46.8,34.7,43.3,39.1,33.7,98,77,45,30.18,30.06,6,1,7,0.00
2013-10-21,63.9,48.1,39.4,48.2,41.4,38.8,98,80,43,30.21,30.12,6,1,6,0.00
2013-10-22,60.6,46.7,37.4,57.3,42.9,36.4,98,88,57,30.21,30.12,4,1,4,0.00
2013-10-23,56.7,44.5,36.5,51.8,41.2,35.7,98,89,60,30.18,30.09,6,1,6,0.00
2013-10-24,58.6,45.9,39.4,49.8,42.4,37.8,98,89,53,30.15,30.06,5,0,5,0.00
2013-10-25,52.5,42.7,36.9,51.6,41.3,36.3,98,95,78,30.27,30.12,4,0,5,2.79
2013-10-26,52.0,42.1,35.8,49.3,40.2,35.0,98,93,71,30.30,30.03,4,0,57,0.00
2013-10-27,48.0,42.4,34.7,46.2,36.9,22.7,98,83,42,30.03,29.79,20,3,20,0.12
2013-10-28,47.1,37.4,32.7,32.6,20.9,13.6,96,54,34,30.03,29.88,16,5,16,0.00
2013-10-29,47.3,34.7,24.6,26.0,19.1,13.4,84,54,38,30.00,29.91,9,1,9,0.00
2013-10-30,46.6,36.3,27.3,32.3,26.0,22.3,93,69,41,30.06,29.97,7,1,7,0.00
2013-10-31,49.3,43.8,38.7,40.5,34.7,26.6,96,71,52,30.12,30.00,6,2,8,0.00
2013-11-1,52.3,41.6,34.0,42.5,37.1,33.4,98,85,55,30.24,29.97,7,1,7,0.00
2013-11-2,49.1,42.2,35.1,47.0,38.5,27.9,98,88,53,29.97,29.62,13,2,13,0.25
2013-11-3,42.1,35.7,31.8,35.4,31.0,24.2,95,83,55,29.97,29.76,6,1,9,0.04
2013-11-4,38.1,33.8,30.4,33.3,28.5,0.0,97,81,60,30.15,29.94,6,1,6,0.04
2013-11-5,34.9,32.6,28.8,34.4,30.6,24.4,98,92,76,30.18,30.06,6,1,6,0.04
2013-11-6,40.3,36.3,34.3,36.5,34.4,32.4,98,93,80,30.33,30.12,6,0,6,0.05
2013-11-7,43.7,37.9,34.3,43.2,37.2,33.1,98,98,94,30.21,29.74,11,1,11,0.58
2013-11-8,48.4,40.4,31.6,40.4,35.2,29.3,97,83,53,30.15,29.88,8,1,8,0.04
2013-11-9,43.9,36.1,31.8,39.0,34.5,30.9,98,94,73,30.18,30.09,6,0,6,0.00
2013-11-10,43.2,39.9,38.3,40.1,38.2,36.4,98,94,88,30.24,30.06,9,1,9,0.00
2013-11-11,47.5,41.2,38.1,38.6,36.3,34.7,91,83,68,30.33,30.18,12,3,13,0.00
2013-11-12,46.4,41.5,34.2,41.8,38.2,31.5,98,88,77,30.30,30.18,6,1,7,0.00
2013-11-13,49.1,43.5,40.5,47.9,39.3,34.0,98,86,62,30.33,30.21,4,0,5,0.00
2013-11-14,46.4,40.9,35.1,42.7,37.8,32.7,98,89,74,30.21,29.88,4,0,4,0.00
2013-11-15,40.1,36.4,33.3,35.3,33.1,30.4,98,88,69,29.91,29.35,8,1,11,0.08
2013-11-16,39.7,35.4,32.9,37.8,34.1,31.1,98,95,86,29.68,29.23,6,0,8,0.38
2013-11-17,43.9,37.7,30.4,36.7,31.5,27.6,94,79,56,29.91,29.68,12,2,12,0.03
2013-11-18,46.4,43.8,40.8,40.8,30.6,28.9,96,60,52,29.91,29.68,10,2,11,0.09
2013-11-19,56.1,46.5,35.2,40.8,35.6,23.2,98,67,46,29.79,29.59,12,2,13,0.08
2013-11-20,37.9,29.1,20.3,25.7,8.9,4.0,64,43,32,30.33,29.79,8,2,8,0.00
2013-11-21,32.2,22.4,14.5,12.1,8.2,4.5,77,55,41,30.59,30.33,6,0,8,0.00
2013-11-22,34.2,23.9,14.5,18.2,12.5,8.2,81,63,42,30.65,30.56,6,1,6,0.00
2013-11-23,35.8,26.3,21.6,18.6,15.2,12.1,78,63,45,30.56,30.27,6,1,229,0.00
2013-11-24,37.8,27.0,19.0,23.1,19.2,14.6,89,74,50,30.30,30.21,4,0,4,0.00
2013-11-25,39.6,30.5,22.5,26.5,23.5,19.6,92,76,56,30.41,30.30,6,1,6,0.00
2013-11-26,39.4,29.0,22.8,32.3,24.5,19.8,98,84,64,30.33,30.12,4,0,4,0.00
2013-11-27,37.9,30.4,25.2,31.9,27.0,23.2,98,88,63,30.18,30.06,7,1,7,0.00
2013-11-28,35.6,28.9,26.1,33.8,27.2,23.5,98,94,80,30.18,30.09,3,0,3,0.00
2013-11-29,33.4,31.0,28.0,32.9,30.5,27.5,98,98,98,30.24,30.15,4,0,5,0.00
2013-11-30,37.4,34.4,32.2,36.9,33.9,31.7,98,98,98,30.24,30.12,3,0,4,0.09
2013-12-1,46.0,39.9,34.7,44.4,39.1,34.0,98,97,80,30.12,29.65,8,1,10,0.66
2013-12-2,45.5,34.4,25.3,40.2,22.9,11.2,86,64,44,29.94,29.59,16,3,16,0.00
2013-12-3,27.3,23.5,14.4,11.2,3.9,-2.4,54,42,34,30.18,29.91,14,4,16,0.00
2013-12-4,23.9,16.1,9.1,6.8,0.1,-4.9,67,49,39,30.21,30.15,6,1,7,5.49